sat.trackr.live / text

‹ back to catalog

STARLINK-11638 [DTC]

NORAD 63269 · 2025-053E

PAYLOAD ACTIVE UNKNOWN

§ Identity

Operator
Country
US
Launch date
2025-03-15
Launch site
AFETR
Launch vehicle
Mass (kg)
RCS (m²)

Purposes: comms

External: N2YO · Heavens-Above · Gunter

§ Orbital elements

Epoch: 2026-05-24T23:56:18.277728Z

Period
91.67 min
Inclination
43.0018°
Eccentricity
0.0002360
Mean motion
15.70870858 rev/d
Perigee alt
354.8 km
Apogee alt
358.0 km
Semi-major
6,734.5 km
B*
1.2110e-3
RAAN
12.0074°
Arg perigee
278.1565°
Mean anomaly
81.9035°
Rev number
6,967

§ Raw data

STARLINK-11638 [DTC]1 63269U 25053E   26144.99743377  .00158139  00000+0  12110-2 0  99902 63269  43.0018  12.0074 0002360 278.1565  81.9035 15.70870858 69676

JSON: /api/v1/satellites/63269 · /tle

For live sub-satellite position, see the globe view (requires WebGL).

§ Visibility from observer

Set your observer location to see the next 7 days of passes ≥ 10°. The values pass through the URL so the page stays shareable.

No JS? Fill the form by hand. The geolocation button needs JavaScript.